Location: Stilling
(56.0622°N, 9.9882°E)
Time: 23:35:35
(UTC+00:00)

CREW DRAGON DEMO-1 DEB - Pass Details

Date: 13 July 2020
Orbit: 368 x 372 km, 51.6° (Epoch: 14 August)

Event Time Altitude Azimuth Distance (km) Brightness Sun altitude
Rises 23:29:23 0° 270° (W) 2,227 6.7 -12.3°
Reaches altitude 10° 23:31:43 10° 254° (WSW) 1,374 5.5 -12.3°
Enters shadow 23:33:54 21° 209° (SSW) 908 4.2 -12.3°
